Погода в Дубовке

Россия / Волгоградская область     49°03′19″N   44°49′37″E
темп.,
°C
ветер,
м/с
пор.,
м/с
влажн.,
%
обл.,
%
осадки,
мм/ч
давл.,
гПа
погр.,
м
7 мая, пт
пт700:00+12ююв3554100 0.0 101562
03:00+12ююв4656100 0.0 101587
06:00+12ю4865100 0.0 1015214
09:00+16ю694897 0.0 1016521
12:00+18ю7941100 0.0 1015919
15:00+19ююз6740100 0.0 10151179
18:00+18юз35505 0.0 1014148
21:00+15зюз33705 0.3 101532
8 мая, сб
сб800:00+11сз58911 0.0 1016154
03:00+10ссз47880 0.0 1017135
06:00+11зсз348524 0.0 1017112
09:00+14зюз236397 0.0 1017479
12:00+18зюз34456 0.0 1016838
15:00+20ююз2442100 0.0 10141093
18:00+20ю2350100 0.0 101346
21:00+17ю2258100 0.0 101311
9 мая, вс
вс900:00+16ююв3364100 0.0 101224
03:00+15юв3664100 0.0 1011110
06:00+15ююв4866100 0.0 1011177
09:00+18ююв6843100 0.0 1010417
12:00+19ю6742100 0.0 1011800
15:00+19юв4746100 0.0 10091037
18:00+19ююв1159100 0.0 100917
21:00+17вюв4464100 0.0 101059
10 мая, пн
пн1000:00+15всв2383100 0.4 101040
03:00+14вюв2385100 0.4 101139
06:00+13св5895100 1.2 1013212
09:00+14ссв91384100 1.8 1013390
12:00+15св61168100 1.0 1014320
15:00+15в91781100 1.8 1015587
18:00+12ююз5693100 1.6 1016213
21:00+14св142083100 1.9 1015593
11 мая, вт
вт1100:00+10ююв3496100 6.5 1018349
03:00+10ю338973 9.9 1019335
06:00+9ююз448229 0.1 1022488
09:00+11ю22672 0.1 1023529
12:00+15с125423 0.0 1023615
15:00+11ссв3383100 1.3 1022185
18:00+11з3490100 2.9 1022227
21:00+11зсз5787100 5.9 1022301